sat.trackr.live / text

‹ back to catalog

STARLINK-31987

NORAD 60017 · 2024-111B

PAYLOAD ACTIVE UNKNOWN

§ Identity

Operator
Country
US
Launch date
2024-06-08
Launch site
AFETR
Launch vehicle
Mass (kg)
RCS (m²)

Purposes: comms

External: N2YO · Heavens-Above · Gunter

§ Orbital elements

Epoch: 2026-05-25T04:27:00.504000Z

Period
94.01 min
Inclination
53.1616°
Eccentricity
0.0001093
Mean motion
15.31702209 rev/d
Perigee alt
470.0 km
Apogee alt
471.5 km
Semi-major
6,848.9 km
B*
2.6958e-5
RAAN
80.4335°
Arg perigee
93.7467°
Mean anomaly
266.3660°
Rev number
11,070

§ Raw data

STARLINK-319871 60017U 24111B   26145.18542250  .00000472  00000+0  26958-4 0  99942 60017  53.1616  80.4335 0001093  93.7467 266.3660 15.31702209110708

JSON: /api/v1/satellites/60017 · /tle

For live sub-satellite position, see the globe view (requires WebGL).

§ Visibility from observer

Set your observer location to see the next 7 days of passes ≥ 10°. The values pass through the URL so the page stays shareable.

No JS? Fill the form by hand. The geolocation button needs JavaScript.